Location: Alsip
(41.6689°N, 87.7387°W)
Time: 13:42:03
(UTC+00:00)

Meteor 1-27 - Pass Details

Date: 14 July 2020
Orbit: 838 x 892 km, 81.3° (Epoch: 04 August)

Event Time Altitude Azimuth Distance (km) Brightness Sun altitude
Rises 02:12:09 0° 354° (N) 3,475 8.1 -8.1°
Reaches altitude 10° 02:14:38 10° 358° (N) 2,540 7.3 -8.5°
Maximum altitude 02:20:20 58° 77° (ENE) 1,031 4.5 -9.3°
Drops below altitude 10° 02:26:03 10° 156° (SSE) 2,549 6.1 -10.1°
Enters shadow 02:26:09 10° 156° (SSE) 2,586 6.2 -10.1°
